Location: Madrid
(40.4000°N, 3.6830°W)
Time: 07:55:09
(UTC+02:00)

ISS - Pass Details

Date: 14 October 2017
Orbit: 400 x 408 km, 51.6° (Epoch: 24 October)

Event Time Altitude Azimuth Distance (km) Brightness Sun altitude
Rises 20:48:34 0° 305° (NW) 2,325 1.0 -14.6°
Reaches altitude 10° 20:50:39 10° 302° (WNW) 1,464 -0.1 -15.0°
Maximum altitude 20:53:55 67° 220° (SW) 443 -3.6 -15.6°
Enters shadow 20:55:34 26° 143° (SE) 832 -2.6 -15.9°
